Theta_e
307 307 307 307 307 306 306 305 304 304 303 304 305 305 306 307 307 305 298 299 295 289 291 291 292 289 291 292 288 293 288 289 285 282 282 283 282 287 286 287 285 284 282 284 284 282 280 294 291 292 298 303 304 303
306 306 306 306 305 305 304 304 303 304 304 304 304 305 306 306 307 307 298 300 300 294 291 294 295 298 298 297 294 295 292 289 290 285 285 287 285 287 286 282 289 283 286 284 285 285 290 292 292 300 304 302 303 304
306 306 305 304 303 303 304 303 303 302 303 303 304 305 306 306 306 306 301 301 297 292 290 290 291 296 299 299 302 291 290 293 293 295 290 289 284 289 284 285 286 289 293 288 289 288 289 296 302 305 304 304 306 307
304 303 302 302 303 303 303 302 302 302 302 302 303 303 305 305 305 306 301 300 297 294 287 288 298 296 302 301 300 301 294 296 294 295 291 289 286 293 289 290 289 292 293 291 288 292 295 299 301 303 304 306 306 306
302 301 301 301 301 300 301 301 301 301 302 302 302 303 304 304 304 303 302 302 300 293 289 289 295 298 300 300 299 300 297 296 293 290 290 288 291 294 292 291 288 295 293 290 287 296 296 298 302 305 302 302 304 304
300 300 300 300 300 300 300 300 301 301 301 302 302 302 303 303 304 300 294 300 301 298 292 287 292 295 298 300 299 298 298 297 295 293 291 290 294 294 285 285 293 296 298 297 295 300 301 302 303 305 303 302 303 303
299 299 299 298 298 298 299 299 300 300 301 301 301 302 303 304 302 296 292 301 302 300 293 289 285 294 298 299 298 296 297 298 297 296 293 289 291 293 286 284 294 296 297 298 300 300 298 300 298 303 303 303 303 303
298 298 298 297 298 298 298 298 299 300 301 302 303 304 305 305 303 298 300 303 304 299 299 288 286 288 299 295 293 296 296 298 298 297 291 290 291 289 284 291 295 297 297 297 298 299 298 299 300 300 302 301 300 299
297 297 297 297 297 297 298 299 300 301 302 303 304 306 301 298 296 302 310 307 305 301 292 291 284 280 296 296 296 294 296 292 293 293 290 289 286 283 289 292 293 294 293 294 296 297 297 297 297 298 298 299 298 298
296 296 297 297 297 298 299 300 301 303 302 303 300 300 298 298 305 308 302 298 297 298 297 291 289 285 292 291 292 291 292 290 288 288 292 283 284 292 294 296 295 297 297 295 294 294 295 295 296 296 297 299 299 298
296 296 296 296 297 298 300 302 301 300 299 290 287 291 296 302 301 299 294 292 292 290 291 292 289 286 293 288 288 291 283 285 280 287 287 284 282 291 296 297 297 298 297 297 298 298 297 296 296 297 298 298 298 297
295 295 296 296 297 299 301 300 300 292 290 290 290 295 296 292 292 291 289 293 291 287 290 289 291 291 291 294 288 287 283 284 283 289 287 280 288 294 296 297 296 296 297 298 298 298 298 298 298 297 297 297 297 297
295 295 295 296 297 298 299 299 299 299 296 294 294 291 292 291 285 286 281 285 289 295 298 297 295 295 293 293 287 284 282 281 288 279 283 285 292 295 296 297 296 295 298 299 299 299 299 299 299 297 296 297 297 297
295 295 296 297 298 299 298 298 298 296 289 290 290 285 286 283 284 286 287 290 297 298 297 298 293 295 293 289 288 284 286 284 277 278 279 288 292 295 297 298 296 295 296 298 298 298 298 298 297 297 296 297 297 296
295 295 296 296 298 298 297 298 298 291 287 286 289 283 285 288 288 290 295 295 297 297 295 294 294 295 290 290 289 285 283 278 280 279 281 291 296 300 300 301 298 297 296 295 297 296 298 298 297 296 296 296 297 296
296 295 294 297 296 297 298 297 292 290 288 287 286 286 288 286 286 287 288 288 292 291 292 295 292 290 288 288 285 284 279 277 281 284 289 294 296 297 300 301 301 300 297 296 297 297 298 298 296 296 297 296 296 295
295 288 295 296 297 298 297 291 290 288 286 286 284 290 289 287 287 288 288 288 289 288 287 290 288 288 292 286 283 285 281 285 287 290 293 295 296 296 299 300 302 301 297 296 296 297 297 298 297 296 295 295 294 294
290 290 296 297 296 294 290 290 289 288 285 286 283 285 286 287 287 287 288 289 289 288 291 291 294 290 287 284 284 290 290 291 292 294 295 296 297 298 300 299 302 300 298 297 297 297 297 297 295 294 294 294 294 293
292 293 296 297 296 291 285 287 290 283 284 285 286 286 286 286 288 290 290 291 291 291 291 292 290 289 289 290 290 291 292 295 294 295 296 298 298 300 302 301 302 300 298 299 296 296 297 297 297 295 293 293 291 291
296 296 296 296 295 287 284 284 289 284 282 285 286 285 284 284 287 287 287 288 288 289 289 289 288 291 294 295 297 298 298 299 295 294 295 297 299 300 299 298 299 299 299 298 296 294 295 294 295 294 293 292 291 289
293 291 294 291 287 287 284 283 284 284 285 283 286 284 283 284 284 283 283 286 285 285 285 289 290 291 294 298 300 301 300 298 296 297 296 295 298 299 299 299 299 298 298 297 297 295 294 294 295 294 293 292 291 290
289 294 290 289 285 286 282 284 282 284 282 283 283 283 281 280 282 284 286 283 284 285 287 289 292 294 295 295 296 298 300 300 299 297 295 296 296 297 298 299 298 297 298 298 298 296 295 295 297 295 294 292 291 290
293 291 288 287 283 279 276 284 281 283 281 282 282 281 281 281 285 288 283 284 287 292 293 294 295 295 295 297 299 298 299 298 297 297 298 300 300 302 301 300 300 299 298 297 299 297 296 294 294 294 293 292 291 289
293 288 282 281 282 277 282 279 281 281 281 280 277 278 280 282 285 284 282 287 291 293 292 293 294 294 294 295 295 297 299 298 298 298 299 300 298 298 299 299 300 301 301 299 298 297 297 296 293 294 293 291 290 289
282 276 280 277 281 280 279 279 280 279 277 278 278 278 282 286 281 282 283 286 289 290 291 292 292 293 293 294 295 296 298 298 297 296 298 300 299 300 298 300 301 301 301 299 297 296 296 295 295 293 292 291 289 287
274 277 276 279 280 279 279 277 273 273 277 278 279 283 284 282 281 281 285 287 288 291 292 291 290 292 293 297 296 297 298 300 299 297 298 300 301 300 299 298 296 295 300 301 298 297 296 296 294 293 291 289 287 287
273 274 280 286 282 282 280 280 278 275 277 277 280 280 279 277 280 283 288 287 288 290 293 294 292 292 293 293 294 296 297 297 298 300 301 301 301 303 302 300 298 297 300 301 299 298 296 294 293 292 291 290 289 287
280 281 278 280 281 281 279 278 277 277 279 283 282 279 279 280 278 283 286 287 288 290 291 292 293 292 294 295 294 294 294 296 298 299 298 297 298 298 299 300 299 292 301 303 301 299 297 295 293 291 291 289 287 287
279 281 282 279 281 281 280 279 278 279 282 281 280 280 283 283 283 284 286 286 289 288 287 288 289 291 291 291 294 294 293 292 293 294 293 293 294 295 297 295 295 295 295 295 289 294 295 294 292 291 290 289 288 287
278 282 280 281 280 279 282 282 280 281 282 283 284 286 284 284 284 286 285 285 285 285 287 288 288 288 287 287 287 288 291 289 289 291 293 293 294 296 296 295 295 295 295 294 292 289 287 290 288 289 287 286 285 282
281 284 283 282 281 284 286 286 284 284 283 284 287 284 283 283 285 285 284 285 286 287 286 285 286 286 286 286 285 284 283 286 286 288 289 295 296 295 295 294 294 296 296 294 293 292 290 290 288 287 285 283 282 282
284 283 283 281 282 285 287 283 281 282 284 283 282 287 284 281 278 281 284 284 284 284 284 285 283 283 285 286 286 287 285 286 285 285 286 288 291 294 294 294 293 293 292 292 291 290 289 287 286 284 283 282 282 281
279 281 282 282 281 282 285 284 282 282 281 278 278 281 280 277 274 280 285 284 283 282 283 284 284 285 285 285 285 285 286 286 285 284 284 284 284 286 291 293 292 291 289 288 287 286 285 284 283 283 282 282 281 280
Wind_Speed
17 17 17 17 16 16 17 18 18 18 18 17 17 17 17 15 15 6 3 6 3 4 10 9 7 5 4 3 3 7 7 4 4 6 3 3 3 4 4 3 4 2 2 3 4 5 7 4 15 6 5 7 7 9
16 17 16 14 16 17 18 18 19 19 18 17 18 16 16 16 15 12 3 2 4 4 9 8 16 18 17 20 6 3 3 2 2 3 3 4 3 4 6 4 1 1 2 2 2 2 6 16 15 13 5 7 9 9
16 15 14 15 18 18 18 18 19 20 19 19 19 18 17 15 16 11 3 3 1 4 7 3 7 7 8 15 13 4 2 4 1 1 2 3 4 2 4 3 5 2 5 2 3 3 9 14 10 10 13 16 12 10
11 15 17 17 17 18 18 19 20 20 19 20 19 18 19 18 15 14 4 3 2 3 5 8 3 8 6 7 13 15 3 4 4 1 2 3 3 3 2 4 3 2 7 6 3 5 11 12 13 17 16 14 16 15
13 15 17 17 18 19 19 19 21 21 21 20 20 19 18 17 17 10 8 7 8 4 4 7 10 5 5 7 8 7 5 4 2 1 3 4 4 2 1 3 3 3 3 4 3 9 6 7 13 14 14 10 8 10
14 15 17 18 18 19 20 20 21 22 23 22 22 22 21 17 13 4 4 2 5 6 3 5 5 5 4 4 7 8 4 2 1 2 3 4 5 1 2 3 6 5 5 2 3 6 5 7 10 8 10 12 13 12
13 15 17 18 19 20 21 22 23 24 25 25 24 23 21 16 4 4 3 2 8 5 4 4 6 5 1 4 2 2 2 2 2 3 3 3 3 2 1 1 5 8 7 8 9 5 7 10 3 3 9 11 14 13
14 16 17 19 19 20 22 23 25 26 26 26 26 24 22 12 6 5 7 17 8 4 3 2 6 6 4 3 3 3 3 2 3 3 3 3 3 1 1 5 5 6 9 6 6 6 3 4 7 10 11 13 17 14
14 16 17 19 20 21 22 23 23 24 26 27 27 14 3 3 3 2 4 7 6 3 2 2 2 5 3 1 2 1 3 2 0 3 4 2 1 2 5 3 4 4 2 5 4 7 8 9 10 8 9 13 14 15
15 16 18 19 20 21 21 19 20 21 24 21 5 2 1 2 14 2 1 1 3 2 3 4 2 4 1 2 2 2 1 2 2 5 2 2 4 4 5 6 4 6 4 2 6 7 6 7 7 8 10 9 13 14
14 16 17 18 20 19 21 19 17 20 11 5 5 3 4 12 1 2 2 3 2 3 4 4 7 4 3 3 4 2 2 1 1 4 1 3 4 4 3 5 3 6 2 6 5 3 4 5 5 7 10 11 14 13
15 16 17 18 18 20 19 16 19 5 2 5 6 6 3 3 2 3 4 4 5 5 3 3 4 5 4 3 3 2 2 2 4 2 1 3 5 4 4 3 2 2 7 6 3 3 4 5 5 6 7 10 10 10
16 16 17 18 20 19 16 18 18 19 12 2 3 4 2 2 2 5 4 4 3 1 0 3 3 3 1 1 2 3 2 5 1 3 3 5 3 3 5 4 4 3 7 6 4 4 6 7 8 8 8 6 8 11
16 18 19 19 18 13 18 19 20 11 3 3 3 4 5 4 6 5 3 1 2 5 6 6 4 4 2 2 3 3 3 3 2 1 5 3 4 4 3 0 5 5 6 8 7 7 7 7 6 6 7 6 8 9
17 19 20 14 17 17 21 22 19 2 2 3 3 6 7 6 3 4 2 2 3 6 4 4 1 3 3 2 3 2 1 3 5 6 5 4 6 6 5 2 3 6 6 6 7 7 7 7 7 5 6 7 7 7
17 17 4 17 22 23 25 16 3 2 2 3 6 5 4 2 3 2 2 3 3 3 4 2 1 1 5 2 3 6 6 6 6 5 4 4 6 6 8 6 2 1 5 6 6 7 7 7 8 6 6 7 6 7
13 3 13 20 23 24 22 2 2 4 5 5 5 4 6 4 6 3 2 4 1 3 3 2 1 4 2 3 3 5 7 5 5 4 3 6 8 8 6 6 4 5 5 7 6 6 6 6 7 6 8 5 6 6
4 6 17 20 16 10 2 2 3 4 7 6 4 3 3 4 4 4 4 3 2 3 2 4 4 4 4 3 4 3 4 4 3 4 4 5 6 6 5 6 6 7 7 7 7 6 7 8 7 5 7 7 6 5
7 9 17 20 11 4 3 4 3 4 6 4 4 3 4 4 4 6 4 5 4 4 3 2 5 4 4 4 3 3 4 4 5 4 4 6 8 8 8 7 7 7 7 7 6 6 8 9 9 6 5 5 5 4
18 16 16 14 7 1 4 5 2 4 4 4 2 4 3 4 4 4 3 3 3 2 4 4 5 5 4 4 5 5 4 5 3 2 2 3 5 10 7 5 5 8 6 5 5 6 5 5 3 5 5 4 6 4
7 3 5 0 2 5 3 4 4 4 4 3 3 2 4 4 8 6 4 1 1 3 4 4 3 5 6 7 5 5 5 3 8 6 5 4 5 5 5 5 5 5 6 5 7 6 8 7 6 6 5 5 5 5
4 5 3 3 3 4 4 4 4 5 3 4 7 4 4 3 4 4 3 1 3 2 3 3 5 6 9 8 7 8 12 13 11 4 1 5 5 4 5 6 5 5 7 8 7 9 6 7 8 7 7 6 6 5
4 1 3 2 3 2 8 1 3 4 3 4 4 4 4 3 4 2 3 3 3 1 4 6 10 9 9 13 10 6 6 8 6 6 6 6 6 9 7 7 6 8 6 3 6 8 8 11 10 9 8 7 6 5
3 2 2 3 5 5 3 4 3 3 5 4 4 7 5 3 2 1 2 3 3 6 7 11 9 10 9 8 5 7 7 4 5 4 3 6 4 4 6 6 5 5 7 7 8 8 10 10 11 10 9 9 7 7
3 4 2 5 4 3 4 4 2 0 5 4 6 6 3 3 2 3 3 3 4 4 5 8 8 7 6 7 7 6 6 7 7 5 4 5 3 5 4 4 6 7 8 9 9 11 10 10 10 10 10 10 10 9
2 4 6 4 3 3 3 5 2 4 6 6 3 4 3 4 1 3 1 4 3 4 5 8 9 8 8 8 8 10 11 9 8 8 5 8 9 10 10 9 5 2 5 10 11 13 14 12 12 14 10 10 10 11
3 5 4 4 3 3 4 4 2 2 4 3 3 5 4 5 7 5 2 8 6 6 9 7 8 9 9 9 10 11 11 10 9 5 2 3 1 5 10 11 11 7 8 12 12 14 16 14 13 12 10 8 8 9
5 4 5 3 3 3 4 3 3 3 3 2 1 3 4 4 5 5 4 8 9 9 8 8 9 9 9 8 8 10 12 12 5 3 7 8 8 7 5 4 5 12 10 13 13 10 12 14 13 13 12 11 8 7
4 3 3 10 5 3 3 3 3 3 3 1 2 1 3 4 6 5 5 8 7 8 9 9 10 10 10 9 8 10 11 12 16 14 13 8 7 6 6 3 4 4 4 7 8 12 16 13 14 13 12 10 8 7
4 3 3 4 3 3 3 5 4 4 2 3 2 3 4 2 3 5 7 7 8 8 8 7 8 9 10 11 10 12 11 12 11 10 7 8 5 5 5 4 4 6 8 10 11 11 15 15 14 11 10 8 7 6
2 1 4 4 4 3 5 5 5 3 2 1 2 1 4 4 2 7 10 9 8 7 8 9 9 11 10 11 11 11 11 10 15 16 14 9 9 9 8 6 6 2 9 12 12 10 11 11 11 13 12 11 10 8
2 4 3 4 4 4 4 2 2 1 4 4 5 3 3 3 4 5 9 9 8 8 10 10 10 10 10 9 9 7 8 9 12 12 16 11 10 10 8 8 9 8 8 9 9 9 10 12 11 10 10 11 10 9
3 3 3 3 4 4 3 3 1 4 4 3 5 5 3 3 4 4 4 8 8 8 8 8 8 7 10 10 12 10 12 11 17 20 20 19 18 15 10 8 8 10 13 12 11 11 13 15 12 11 11 9 9 10
Wind_Direction
294 297 301 304 308 313 314 314 316 319 323 322 318 316 315 311 308 305 216 183 186 241 275 236 247 220 257 250 271 314 343 346 355 5 354 328 294 317 302 271 321 333 250 186 204 236 243 15 306 211 332 305 281 354
294 299 304 313 316 316 313 313 315 312 314 321 315 313 309 309 308 308 223 198 178 233 263 283 264 247 234 252 258 254 272 281 284 342 351 298 289 295 300 315 316 1 311 294 298 289 309 283 264 279 275 229 9 348
301 312 320 317 314 311 311 312 314 314 315 318 321 320 314 303 299 295 255 190 188 270 276 280 245 246 217 228 203 218 257 228 225 130 293 292 284 304 316 328 302 295 303 14 253 318 300 315 7 49 37 21 354 356
322 317 313 311 311 313 316 317 312 313 313 315 311 312 311 314 312 306 262 165 176 272 276 278 295 270 221 201 187 208 166 73 103 113 261 271 272 213 286 289 285 275 309 326 300 303 330 339 1 21 44 29 18 31
313 313 315 316 320 321 318 318 315 313 313 314 314 309 307 306 304 299 264 233 199 191 292 294 303 268 276 172 173 173 153 129 156 189 222 244 267 278 320 278 311 343 318 352 300 282 269 345 17 31 46 54 34 26
316 317 318 319 323 325 322 319 318 316 314 313 310 307 304 303 300 294 299 139 184 178 266 293 282 295 351 119 142 156 156 128 190 242 235 263 257 188 57 301 279 300 316 280 282 333 25 64 50 30 28 53 45 34
317 319 323 326 325 325 323 323 321 319 316 312 305 300 297 291 253 223 210 37 145 166 245 288 306 277 159 113 132 131 189 224 216 256 249 250 292 109 128 262 286 318 325 349 2 15 17 25 40 64 62 54 67 45
320 322 325 326 327 326 325 324 320 319 314 308 304 301 294 262 233 252 243 236 213 230 247 278 275 325 189 162 214 161 187 202 208 264 296 241 317 73 290 268 301 309 327 6 30 46 51 347 22 26 36 45 59 52
324 325 328 327 328 326 323 323 323 319 311 311 310 311 92 92 179 245 29 145 158 248 261 215 216 263 334 256 158 227 167 203 257 244 246 115 310 244 226 228 289 303 354 325 56 35 26 40 26 17 43 50 56 46
324 326 327 328 328 326 326 330 332 324 318 323 354 333 84 39 326 279 268 163 197 220 232 246 175 263 45 354 299 104 229 220 213 251 323 91 251 255 240 216 249 301 2 334 28 25 24 29 19 10 28 44 61 56
323 325 328 329 329 326 323 328 348 342 351 9 7 343 313 305 285 233 226 193 190 238 225 238 194 214 264 186 226 175 198 194 54 266 149 308 290 240 250 223 250 275 278 76 100 77 54 75 59 35 56 57 56 49
321 324 325 327 327 322 327 342 346 9 267 258 281 294 268 311 267 244 227 169 203 232 220 202 215 202 261 152 109 296 164 42 238 311 86 274 260 222 186 234 41 111 139 122 125 102 23 10 59 74 67 62 61 53
320 324 323 323 318 318 329 332 333 326 321 289 204 230 221 244 245 218 222 264 260 222 148 272 258 231 287 96 82 82 109 230 14 49 232 232 264 195 194 163 146 187 143 141 127 88 71 58 47 48 50 44 77 68
318 318 318 319 314 321 325 324 326 330 312 279 260 249 196 202 241 207 203 200 326 261 291 262 239 163 237 141 149 153 230 81 28 341 238 244 227 195 125 263 147 115 122 158 135 123 113 96 77 56 63 57 72 67
315 314 313 304 347 334 328 324 319 237 216 257 258 244 230 227 255 250 267 299 266 274 330 320 25 78 273 170 204 115 112 266 204 228 228 221 187 162 128 168 191 152 137 136 140 141 138 121 102 74 69 63 64 70
322 318 1 342 332 330 321 325 312 138 240 231 235 262 260 302 283 346 307 262 259 314 299 93 61 181 243 189 154 205 141 225 243 217 223 175 184 211 173 145 210 205 156 132 146 152 138 130 126 121 96 84 81 78
321 250 318 322 322 319 313 251 235 224 222 238 250 229 253 269 258 242 206 259 272 358 280 112 173 212 272 253 243 183 197 217 222 222 214 187 189 198 193 142 193 202 194 140 150 162 137 127 124 112 104 91 95 94
270 274 298 308 323 318 286 248 261 255 240 239 234 249 209 232 261 277 245 244 150 217 288 239 173 211 222 242 265 249 265 263 221 223 199 208 205 206 182 195 183 180 191 165 146 140 137 137 138 146 132 126 107 98
280 288 295 303 311 306 288 273 209 259 246 256 258 252 227 246 249 253 254 263 216 205 240 212 229 201 212 226 250 290 262 237 221 225 223 203 187 182 185 178 160 156 174 155 158 157 173 168 157 150 138 122 115 116
299 295 290 295 312 262 279 270 272 270 261 253 279 278 253 243 261 271 277 261 226 201 237 224 212 216 209 237 213 212 243 250 227 194 243 236 198 190 198 160 180 167 159 132 136 127 116 95 101 123 123 128 113 101
312 275 319 347 260 207 248 281 271 243 283 288 305 333 272 304 290 270 277 223 235 221 226 229 268 293 281 260 249 218 249 235 223 197 197 198 219 185 167 189 177 150 152 151 162 167 153 156 150 133 124 115 109 104
257 296 282 266 233 245 237 230 230 287 294 261 292 278 270 277 266 275 278 250 229 345 21 332 308 313 310 291 265 223 234 238 232 215 175 126 131 167 196 192 155 166 163 163 170 164 150 143 143 134 129 128 117 116
276 211 242 257 261 266 258 160 234 255 281 280 314 273 262 276 237 159 249 240 56 340 334 314 316 301 288 289 293 283 244 217 214 216 190 200 189 189 177 165 165 154 146 173 166 147 146 147 138 133 132 131 128 114
326 256 271 264 226 264 301 276 240 344 339 326 320 300 298 257 278 236 252 45 354 347 347 341 331 330 328 331 337 339 346 291 246 266 229 173 163 179 170 162 157 161 172 157 150 142 145 145 138 140 146 147 141 138
280 264 234 265 265 270 264 264 74 61 261 270 288 273 272 300 279 34 45 354 330 341 337 342 338 327 319 323 307 308 333 338 317 267 219 201 132 114 134 151 171 163 143 144 152 150 144 145 146 149 154 152 150 147
266 248 183 234 265 249 296 307 233 241 306 295 270 272 314 291 206 104 356 350 307 326 344 0 341 337 341 342 338 334 336 324 306 260 248 182 178 169 163 157 147 199 180 155 157 153 151 155 154 156 153 149 147 141
273 279 230 235 282 322 278 273 261 208 265 275 327 336 324 308 34 21 18 9 341 338 343 341 343 337 345 356 346 341 336 325 285 265 48 78 84 170 159 167 180 181 167 157 158 158 156 156 157 154 146 143 152 148
237 266 244 214 251 217 253 241 255 232 244 218 329 304 302 347 26 340 360 328 331 338 344 346 348 341 344 353 357 347 340 337 339 92 85 60 51 41 20 64 108 148 162 161 141 148 162 156 149 146 149 151 142 142
245 255 257 269 252 233 226 220 249 248 241 139 136 186 356 62 352 335 332 338 338 349 355 353 358 352 353 353 3 2 355 9 19 29 62 53 30 11 353 58 96 97 106 119 110 143 152 148 141 141 142 137 133 132
257 196 258 263 248 241 233 204 234 234 234 186 238 110 105 109 4 354 357 357 1 0 354 352 357 3 5 358 356 0 7 16 14 349 4 35 20 337 359 58 85 107 106 104 102 100 102 105 105 111 114 121 125 123
237 240 250 239 266 243 237 244 259 248 230 203 120 155 122 147 141 22 7 352 347 2 11 13 11 11 12 13 4 359 3 2 356 354 360 14 21 15 16 43 40 44 119 121 122 130 136 127 132 135 136 140 141 137
230 232 268 283 281 292 307 225 264 53 42 41 15 38 79 67 59 20 2 353 359 11 12 15 17 15 12 10 11 16 15 13 13 4 7 13 16 28 25 47 54 46 58 85 108 122 128 124 127 129 128 123 121 124
264 219 211 290 298 311 299 320 284 97 60 70 34 20 51 71 81 5 1 3 5 1 1 2 3 14 16 19 17 13 18 17 17 20 21 23 27 26 26 37 56 77 79 76 78 87 89 94 95 97 98 101 103 108